Left ArrowRight Arrow

40.97296, -117.73568

Hourly Observations for March 25, 2018

Temp ( °F °C ) Dew Point ( °F °C ) Humidity (%) Winds ( mph kmh ) Pressure ( in mb ) Visibility ( mi km ) Precip ( " mm )
12:56 am 00:56 Cloudy 29 -1.7 25 -3.9 85 85 S 8 13 29.88 1012 10 16 0.00 0.00
1:56 am 01:56 Mostly Cloudy 28 -2.2 24 -4.4 85 85 S 6 9 29.88 1012 10 16 0.00 0.00
2:56 am 02:56 Cloudy 27 -2.8 23 -5 85 85 SSW 8 13 29.89 1012 10 16 0.00 0.00
3:56 am 03:56 Mostly Cloudy 28 -2.2 19 -7.2 69 69 S 5 7 29.89 1012 10 16 0.00 0.00
4:56 am 04:56 Partly Cloudy 25 -3.9 15 -9.4 66 66 ESE 6 9 29.92 1013 10 16 0.00 0.00
5:56 am 05:56 Clear 24 -4.4 16 -8.9 71 71 SSE 5 7 29.94 1014 10 16 0.00 0.00
6:56 am 06:56 Mostly Cloudy 30 -1.1 16 -8.9 56 56 S 7 11 29.96 1015 10 16 0.00 0.00
7:56 am 07:56 Mostly Cloudy 29 -1.7 20 -6.7 69 69 SSW 9 15 29.99 1016 10 16 0.00 0.00
8:56 am 08:56 Mostly Cloudy 31 -0.6 21 -6.1 67 67 SW 7 11 29.99 1016 10 16 0.00 0.00
9:56 am 09:56 Mostly Sunny 33 0.6 20 -6.7 58 58 SW 9 15 30.01 1016 10 16 0.00 0.00
10:56 am 10:56 Mostly Cloudy with Light Snow 35 1.7 22 -5.6 59 59 W 14 22 30.02 1017 9 14 0.00 0.03
11:56 am 11:56 Cloudy 36 2.2 18 -7.8 48 48 NW 5 7 30.01 1016 10 16 0.00 0.03
12:56 pm 12:56 Partly Cloudy 39 3.9 26 -3.3 60 60 WNW 17 28 30.02 1017 10 16 0.00 0.00
1:10 pm 13:10 Mostly Cloudy 34 1 25 -4 70 70 NNW 15 24 30.09 1019 10 16 0.00 0.00
1:56 pm 13:56 Mostly Cloudy 35 1.7 22 -5.6 59 59 N 7 11 30.03 1017 10 16 0.00 0.03
2:56 pm 14:56 Mostly Cloudy 35 1.7 22 -5.6 59 59 SSW 9 15 30.03 1017 10 16 0.00 0.00
3:56 pm 15:56 Mostly Cloudy with Light Snow 37 2.8 23 -5 57 57 VRB 6 9 30.02 1017 7 11 0.02 0.51
4:18 pm 16:18 Cloudy with Light Snow 34 1 25 -4 70 70 N 12 19 30.09 1019 2 3 0.00 0.00
4:30 pm 16:30 Cloudy with Light Snow 33 0.6 26 -3.3 75 75 ENE 8 13 30.12 1020 3 5 0.01 0.25
4:56 pm 16:56 Mostly Sunny 35 1.7 26 -3.3 70 70 E 9 15 30.06 1018 10 16 0.01 0.25
5:56 pm 17:56 Partly Cloudy 35 1.7 25 -3.9 67 67 SSE 7 11 30.07 1018 10 16 0.00 0.00
6:56 pm 18:56 Sunny 34 1.1 25 -3.9 70 70 Calm 30.07 1018 10 16 0.00 0.00
7:56 pm 19:56 Mostly Clear 30 -1.1 23 -5 75 75 S 7 11 30.09 1019 10 16 0.00 0.00
8:56 pm 20:56 Clear 29 -1.7 24 -4.4 82 82 SSE 6 9 30.11 1020 10 16 0.00 0.00
9:56 pm 21:56 Clear 28 -2.2 22 -5.6 78 78 SSE 6 9 30.12 1020 10 16 0.00 0.00
10:56 pm 22:56 Clear 26 -3.3 21 -6.1 81 81 SSE 5 7 30.14 1021 10 16 0.00 0.00
11:56 pm 23:56 Clear 24 -4.4 20 -6.7 84 84 VRB 3 6 30.15 1021 10 16 0.00 0.00

Powered by Vaisala Xweather